FW4397 Weather Reports


time (UTC)temp
F
wind
direction
speed
knots
gust
knots
rain 1hr
in
rain 24hr
in
rain mn
in
humidity
%
barometer
mb
20260507192033 73 325 1.7 4.3 0.00 0.06 0.06 87 1019.1
20260507191545 73 148 1.7 5.2 0.00 0.06 0.06 87 1019.1
20260507191033 73 313 0.9 6.1 0.00 0.06 0.06 88 1019.1
20260507190534 72 329 1.7 6.1 0.00 0.06 0.06 88 1019.0
20260507190044 72 254 1.7 7.8 0.00 0.06 0.06 89 1018.9
20260507185531 72 313 2.6 7.8 0.00 0.06 0.06 89 1018.8
20260507185034 72 66 0.0 7.8 0.00 0.06 0.06 90 1018.9
20260507184547 72 338 0.0 4.3 0.00 0.06 0.06 90 1018.9
20260507184034 71 337 1.7 4.3 0.00 0.06 0.06 90 1018.8
20260507183536 71 338 0.9 7.8 0.00 0.06 0.06 91 1018.7
20260507183057 71 21 1.7 7.8 0.00 0.06 0.06 91 1018.7
20260507182534 71 240 0.9 4.3 0.00 0.06 0.06 91 1018.8
20260507182035 71 236 0.9 3.5 0.00 0.06 0.06 91 1018.7
20260507181550 71 0 0.0 3.5 0.00 0.06 0.06 92 1018.7
20260507181034 70 0 0.9 3.5 0.00 0.06 0.06 92 1018.7
20260507180534 70 219 0.9 3.5 0.00 0.06 0.06 92 1018.6
20260507180051 70 217 1.7 5.2 0.00 0.06 0.06 92 1018.6
20260507175535 70 171 0.9 5.2 0.00 0.06 0.06 92 1018.6
20260507175032 70 292 0.9 4.3 0.00 0.06 0.06 92 1018.6
20260507174544 69 300 0.0 4.3 0.00 0.06 0.06 92 1018.6
20260507174033 69 302 1.7 4.3 0.00 0.06 0.06 92 1018.5
20260507173534 69 240 0.9 2.6 0.00 0.06 0.06 92 1018.5
20260507173042 69 0 0.9 3.5 0.00 0.06 0.06 92 1018.5
20260507172538 68 240 0.9 3.5 0.00 0.06 0.06 92 1018.3
20260507172035 68 148 0.9 3.5 0.00 0.06 0.06 92 1018.2
20260507171543 68 227 0.9 3.5 0.00 0.06 0.06 92 1018.3
20260507171034 68 228 0.9 3.5 0.00 0.06 0.06 92 1018.1
20260507170533 68 228 0.9 3.5 0.00 0.06 0.06 92 1018.0
20260507170049 67 0 0.9 3.5 0.00 0.06 0.06 92 1018.0
20260507165534 67 0 0.0 3.5 0.00 0.06 0.06 92 1018.0
20260507165037 67 125 0.9 3.5 0.00 0.06 0.06 92 1018.0
20260507164547 67 0 0.0 0.0 0.00 0.06 0.06 92 1017.9
20260507164034 67 0 0.0 0.0 0.00 0.06 0.06 92 1017.9
20260507163535 67 0 0.0 0.0 0.00 0.06 0.06 92 1017.9
20260507163045 67 0 0.0 0.0 0.00 0.06 0.06 92 1017.8
20260507162535 67 0 0.0 0.0 0.00 0.06 0.06 92 1017.7
20260507162036 67 0 0.0 0.0 0.00 0.06 0.06 92 1017.7
20260507161544 67 0 0.0 0.0 0.00 0.06 0.06 91 1017.6
20260507161034 67 0 0.0 0.0 0.00 0.06 0.06 91 1017.5
20260507160535 67 0 0.0 0.0 0.00 0.06 0.06 91 1017.4
20260507160044 67 0 0.0 0.0 0.00 0.06 0.06 91 1017.3
20260507155534 67 0 0.0 0.0 0.00 0.06 0.06 91 1017.3
20260507155038 67 0 0.0 0.0 0.00 0.06 0.06 91 1017.2
20260507154547 67 0 0.0 0.0 0.00 0.06 0.06 91 1017.3
20260507154035 67 0 0.0 1.7 0.00 0.06 0.06 91 1017.2
20260507153536 67 0 0.0 5.2 0.00 0.06 0.06 91 1017.1
20260507153054 67 0 0.9 5.2 0.00 0.06 0.06 91 1017.1
20260507152534 67 0 0.0 4.3 0.00 0.06 0.06 91 1017.1
20260507152034 67 133 0.0 2.6 0.00 0.06 0.06 91 1017.2
20260507151545 67 133 0.0 9.6 0.00 0.06 0.06 91 1017.1
20260507151034 67 130 1.7 9.6 0.00 0.06 0.06 91 1017.0
20260507150538 67 192 0.9 3.5 0.00 0.06 0.06 91 1017.0
20260507150045 67 195 0.0 3.5 0.00 0.06 0.06 91 1017.0
20260507145533 67 0 0.9 3.5 0.00 0.06 0.06 91 1017.0
20260507145032 67 246 0.0 1.7 0.00 0.06 0.06 91 1016.9
20260507144548 67 0 0.0 2.6 0.00 0.06 0.06 91 1016.9
20260507144034 67 0 0.0 2.6 0.00 0.06 0.06 91 1017.0
20260507143534 67 246 0.0 2.6 0.00 0.06 0.06 91 1016.9
20260507143042 67 0 0.0 2.6 0.00 0.06 0.06 91 1016.9
20260507142533 67 180 0.0 2.6 0.00 0.06 0.06 91 1016.8
20260507142033 67 179 0.9 2.6 0.00 0.06 0.06 91 1016.8
20260507141554 67 177 0.0 3.5 0.00 0.06 0.06 91 1016.8
20260507141033 67 0 0.9 3.5 0.00 0.06 0.06 91 1016.7
20260507140533 67 0 0.0 3.5 0.01 0.06 0.06 91 1016.7
20260507140106 67 119 0.0 5.2 0.01 0.06 0.06 91 1016.7
20260507135533 67 126 1.7 5.2 0.01 0.06 0.06 91 1016.7
20260507135033 67 165 0.0 3.5 0.02 0.06 0.06 91 1016.8
20260507134545 67 0 0.0 5.2 0.03 0.06 0.06 91 1016.8
20260507134033 67 0 1.7 5.2 0.04 0.06 0.06 91 1016.8
20260507133537 68 15 1.7 4.3 0.04 0.06 0.06 91 1016.7
20260507133044 67 0 0.9 7.0 0.04 0.06 0.06 91 1016.8
20260507132534 67 124 2.6 7.0 0.05 0.06 0.06 91 1016.8
20260507132036 68 129 2.6 7.0 0.05 0.06 0.06 91 1016.8
20260507131600 68 0 0.0 2.6 0.05 0.06 0.06 91 1016.8
20260507131037 68 0 0.0 2.6 0.05 0.06 0.06 91 1016.9
20260507130534 68 71 0.9 2.6 0.04 0.05 0.05 91 1016.9
20260507130051 68 180 0.0 2.6 0.04 0.05 0.05 91 1016.9
20260507125535 68 178 0.9 2.6 0.04 0.05 0.05 91 1016.9
20260507125034 68 177 0.9 2.6 0.03 0.04 0.04 91 1017.0
20260507124606 68 178 0.0 3.5 0.02 0.03 0.03 91 1017.1
20260507124033 68 177 0.9 3.5 0.01 0.02 0.02 91 1017.1
20260507123534 68 0 0.9 4.3 0.01 0.02 0.02 91 1017.1
20260507123056 68 0 0.9 4.3 0.01 0.02 0.02 91 1017.1
20260507122533 68 0 0.0 2.6 0.00 0.01 0.01 91 1017.1
20260507122030 68 0 0.0 2.6 0.01 0.01 0.01 91 1017.1
20260507121547 68 124 0.0 2.6 0.01 0.01 0.01 91 1017.2
20260507121030 68 0 0.0 2.6 0.01 0.01 0.01 91 1017.3
20260507120530 68 0 0.0 2.6 0.01 0.01 0.01 91 1017.2
20260507120046 69 206 0.9 2.6 0.01 0.01 0.01 91 1017.3
20260507115533 69 0 0.9 2.6 0.01 0.01 0.01 91 1017.3
20260507115030 68 0 0.0 2.6 0.01 0.01 0.01 91 1017.3
20260507114547 69 229 0.9 2.6 0.01 0.01 0.01 91 1017.3
20260507114031 69 0 0.9 2.6 0.01 0.01 0.01 91 1017.4
20260507113530 69 0 0.0 2.6 0.01 0.01 0.01 91 1017.5
20260507113043 69 230 0.9 2.6 0.01 0.01 0.01 91 1017.6
20260507112530 69 230 0.9 2.6 0.01 0.01 0.01 91 1017.7
20260507112030 69 0 0.0 4.3 0.00 0.00 0.00 91 1017.5
20260507111545 69 144 0.9 4.3 0.00 0.00 0.00 90 1017.5
20260507111030 69 0 0.0 4.3 0.00 0.00 0.00 90 1017.5
20260507110530 69 186 0.9 5.2 0.00 0.00 0.00 90 1017.6
20260507110046 69 275 0.0 5.2 0.00 0.00 0.00 90 1017.8
20260507105531 69 244 0.9 6.1 0.00 0.00 0.00 90 1017.8
20260507105031 69 327 0.9 6.1 0.00 0.00 0.00 90 1017.9
20260507104544 69 0 0.0 0.0 0.00 0.00 0.00 90 1017.9
20260507104031 69 0 0.0 0.0 0.00 0.00 0.00 90 1017.9
20260507103530 69 0 0.0 0.0 0.00 0.00 0.00 90 1018.0
20260507103043 69 0 0.0 0.0 0.00 0.00 0.00 90 1018.0
20260507102530 69 0 0.0 0.0 0.00 0.00 0.00 90 1018.0
20260507102031 69 0 0.0 0.0 0.00 0.00 0.00 90 1018.0
20260507101546 69 0 0.0 0.9 0.00 0.00 0.00 90 1018.0
20260507101031 69 0 0.0 4.3 0.00 0.00 0.00 90 1018.0
20260507100531 69 157 0.0 5.2 0.00 0.00 0.00 89 1018.0
20260507100041 69 0 0.9 5.2 0.00 0.00 0.00 90 1018.1
20260507095530 69 149 0.0 5.2 0.00 0.00 0.00 90 1018.2
20260507095029 69 123 0.9 5.2 0.00 0.00 0.00 90 1018.2
20260507094547 69 0 0.0 2.6 0.00 0.00 0.00 90 1018.1
20260507094031 69 0 0.0 1.7 0.00 0.00 0.00 90 1018.2
20260507093531 69 0 0.0 0.0 0.00 0.00 0.00 90 1018.3
20260507093045 69 0 0.0 0.0 0.00 0.00 0.00 89 1018.3
20260507092534 69 0 0.0 0.0 0.00 0.00 0.00 89 1018.4
20260507092034 70 0 0.0 2.6 0.00 0.00 0.00 89 1018.4
20260507091545 70 0 0.0 2.6 0.00 0.00 0.00 90 1018.4
20260507091031 70 242 0.0 1.7 0.00 0.00 0.00 89 1018.4
20260507090531 70 0 0.0 3.5 0.00 0.00 0.00 89 1018.5
20260507090043 70 0 0.0 3.5 0.00 0.00 0.00 90 1018.5
20260507085530 69 0 0.0 1.7 0.00 0.00 0.00 89 1018.5
20260507085030 70 0 0.0 1.7 0.00 0.00 0.00 89 1018.5
20260507084544 70 0 0.0 2.6 0.00 0.00 0.00 89 1018.4
20260507084036 70 0 0.0 2.6 0.00 0.00 0.00 89 1018.5
20260507083530 70 200 0.9 2.6 0.00 0.00 0.00 89 1018.4
20260507083049 70 0 0.0 3.5 0.00 0.00 0.00 89 1018.5
20260507082529 70 199 0.0 3.5 0.00 0.00 0.00 89 1018.6
20260507082030 70 0 0.9 3.5 0.00 0.00 0.00 89 1018.6
20260507081546 70 198 1.7 3.5 0.00 0.00 0.00 89 1018.6
20260507081030 70 197 1.7 3.5 0.00 0.00 0.00 89 1018.5
20260507080531 70 0 0.0 0.0 0.00 0.00 0.00 89 1018.5
20260507080116 70 0 0.0 0.0 0.00 0.00 0.00 89 1018.5
20260507075532 70 0 0.0 3.5 0.00 0.00 0.00 89 1018.5
20260507075030 70 0 0.0 3.5 0.00 0.00 0.00 89 1018.4
20260507074546 70 162 0.9 4.3 0.00 0.00 0.00 89 1018.5
20260507074032 70 159 1.7 4.3 0.00 0.00 0.00 89 1018.4
20260507073531 70 160 0.0 3.5 0.00 0.00 0.00 89 1018.4
20260507073057 70 0 0.0 3.5 0.00 0.00 0.00 89 1018.4
20260507072530 70 161 0.0 4.3 0.00 0.00 0.00 89 1018.3
20260507072029 70 161 1.7 4.3 0.00 0.00 0.00 89 1018.3
20260507071559 70 161 0.0 1.7 0.00 0.00 0.00 89 1018.2
20260507071032 70 0 0.0 3.5 0.00 0.00 0.00 89 1018.2
20260507070533 70 161 0.0 3.5 0.00 0.00 0.00 89 1018.1
20260507070046 70 0 0.9 3.5 0.00 0.00 0.00 89 1018.1
20260507065532 70 161 0.9 3.5 0.00 0.00 0.00 88 1018.0
20260507065033 70 158 0.9 2.6 0.00 0.00 0.00 88 1017.9
20260507064546 70 158 0.0 2.6 0.00 0.00 0.00 88 1017.8
20260507064035 70 158 0.9 2.6 0.00 0.00 0.00 88 1017.8
20260507063530 71 0 0.0 2.6 0.00 0.00 0.00 88 1017.7
20260507063042 71 157 0.0 2.6 0.00 0.00 0.00 88 1017.7
20260507062535 71 155 0.0 4.3 0.00 0.00 0.00 88 1017.5
20260507062034 71 155 0.9 4.3 0.00 0.00 0.00 88 1017.5
20260507061546 71 148 0.0 3.5 0.00 0.00 0.00 88 1017.4
20260507061034 71 93 0.0 3.5 0.00 0.00 0.00 88 1017.4
20260507060536 71 46 0.0 3.5 0.00 0.00 0.00 88 1017.4
20260507060047 71 333 1.7 2.6 0.00 0.00 0.00 88 1017.3
20260507055538 71 329 0.9 2.6 0.00 0.00 0.00 88 1017.3
20260507055033 71 0 0.0 2.6 0.00 0.00 0.00 88 1017.2
20260507054552 71 336 0.0 2.6 0.00 0.00 0.00 88 1017.2
20260507054036 71 340 0.0 1.7 0.00 0.00 0.00 88 1017.1
20260507053534 71 0 0.0 4.3 0.00 0.00 0.00 88 1016.9
20260507053049 71 340 0.9 4.3 0.00 0.00 0.00 88 1016.8
20260507052534 71 343 0.0 2.6 0.00 0.00 0.00 87 1016.8
20260507052035 71 343 0.9 2.6 0.00 0.00 0.00 87 1016.8
20260507051544 71 0 0.0 1.7 0.00 0.00 0.00 87 1016.7
20260507051033 71 0 0.0 1.7 0.00 0.00 0.00 87 1016.6
20260507050533 71 337 0.0 0.9 0.00 0.00 0.00 86 1016.6
20260507050050 72 0 0.0 0.0 0.00 0.00 0.00 86 1016.4
20260507045533 72 0 0.0 3.5 0.00 0.00 0.00 86 1016.4
20260507045034 72 0 0.0 3.5 0.00 0.00 0.00 86 1016.3
20260507044540 72 338 0.0 2.6 0.00 0.00 0.00 85 1016.2
20260507044036 72 338 0.0 5.2 0.00 0.00 0.00 85 1016.2
20260507043534 72 342 1.7 5.2 0.00 0.00 0.00 85 1016.2
20260507043047 73 360 0.9 3.5 0.00 0.00 0.00 84 1016.1
20260507042533 73 0 0.0 3.5 0.00 0.00 0.00 84 1016.0
20260507042034 73 0 0.0 3.5 0.00 0.00 0.00 83 1016.1
20260507041547 73 45 0.9 2.6 0.00 0.00 0.00 83 1016.0
20260507041034 73 46 0.0 2.6 0.00 0.00 0.00 83 1015.8
20260507040534 73 0 0.0 2.6 0.00 0.00 0.00 82 1015.9
20260507040057 73 0 0.0 3.5 0.00 0.00 0.00 82 1015.7
20260507035533 74 355 0.0 3.5 0.00 0.00 0.00 82 1015.8
20260507035033 74 9 0.0 7.8 0.00 0.00 0.00 82 1015.7
20260507034556 74 0 0.0 7.8 0.00 0.00 0.00 82 1015.7
20260507034033 74 53 0.9 3.5 0.00 0.00 0.00 81 1015.6
20260507033533 74 0 0.0 4.3 0.00 0.00 0.00 81 1015.6
20260507033043 74 71 0.0 4.3 0.00 0.00 0.00 81 1015.6
20260507032539 74 73 0.9 3.5 0.00 0.00 0.00 81 1015.5
20260507032032 74 38 1.7 6.1 0.00 0.00 0.00 81 1015.4
20260507031549 75 360 2.6 7.0 0.00 0.00 0.00 81 1015.3
20260507031033 74 14 0.9 7.8 0.00 0.00 0.00 81 1015.4
20260507030532 75 0 2.6 7.8 0.00 0.00 0.00 81 1015.3
20260507030052 75 327 2.6 7.0 0.00 0.00 0.00 80 1015.2
20260507025530 75 325 1.7 5.2 0.00 0.00 0.00 81 1015.2
20260507025031 75 0 0.9 5.2 0.00 0.00 0.00 81 1015.1
20260507024545 75 332 2.6 7.8 0.00 0.00 0.00 81 1015.1
20260507024031 75 342 2.6 7.8 0.00 0.00 0.00 80 1015.1
20260507023531 75 11 2.6 7.0 0.00 0.00 0.00 80 1015.1
20260507023044 76 344 1.7 6.1 0.00 0.00 0.00 79 1015.1
20260507022531 76 19 1.7 5.2 0.00 0.00 0.00 80 1015.1
20260507022031 76 0 0.9 7.0 0.00 0.00 0.00 80 1015.0
20260507021545 76 344 1.7 7.0 0.00 0.00 0.00 78 1015.1
20260507021033 77 336 2.6 7.0 0.00 0.00 0.00 78 1015.3
20260507020532 77 319 1.7 7.0 0.00 0.00 0.00 78 1015.4
20260507020047 77 319 0.9 5.2 0.00 0.00 0.00 78 1015.4
20260507015533 77 30 0.9 7.8 0.00 0.00 0.00 79 1015.4
20260507015031 76 13 2.6 7.8 0.00 0.00 0.00 79 1015.5
20260507014559 76 39 2.6 7.0 0.00 0.00 0.00 79 1015.4
20260507014035 76 340 1.7 6.1 0.00 0.00 0.00 80 1015.5
20260507013536 76 51 1.7 8.7 0.00 0.00 0.00 79 1015.5
20260507013045 76 336 2.6 8.7 0.00 0.00 0.00 79 1015.4
20260507012533 76 329 3.5 8.7 0.00 0.00 0.00 79 1015.4
20260507012033 76 5 2.6 8.7 0.00 0.00 0.00 79 1015.4
20260507011555 76 5 2.6 7.8 0.00 0.00 0.00 78 1015.4
20260507011032 77 321 0.9 5.2 0.00 0.00 0.00 79 1015.5
20260507010533 76 323 1.7 7.0 0.00 0.00 0.00 78 1015.6
20260507010045 77 43 2.6 7.0 0.00 0.00 0.00 78 1015.6
20260507005533 77 325 1.7 7.0 0.00 0.00 0.00 79 1015.6
20260507005030 77 0 1.7 7.0 0.00 0.00 0.00 78 1015.6
20260507004546 77 315 0.9 6.1 0.00 0.00 0.00 78 1015.7
20260507004033 77 346 2.6 6.1 0.00 0.00 0.00 78 1015.6
20260507003537 77 331 0.9 5.2 0.00 0.00 0.00 78 1015.8
20260507003043 77 326 0.9 6.1 0.00 0.00 0.00 79 1015.7
20260507002533 77 320 1.7 7.0 0.00 0.00 0.00 78 1015.8
20260507002033 77 67 1.7 7.8 0.00 0.00 0.00 78 1015.8
20260507001555 77 326 3.5 7.8 0.00 0.00 0.00 78 1015.9
20260507001034 77 331 3.5 6.1 0.00 0.00 0.00 79 1016.0
20260507000534 77 355 0.9 7.0 0.00 0.00 0.00 79 1016.0
20260507000046 76 11 2.6 7.0 0.00 0.00 0.00 79 1016.0
20260506235535 76 30 3.5 8.7 0.00 0.00 0.00 79 1016.0
20260506235035 76 314 2.6 8.7 0.00 0.00 0.00 79 1016.0
20260506234546 77 323 3.5 7.8 0.00 0.00 0.00 78 1016.0
20260506234034 77 5 4.3 10.4 0.00 0.00 0.00 79 1015.9
20260506233534 77 319 3.5 10.4 0.00 0.00 0.00 78 1015.9
20260506233041 78 33 3.5 7.0 0.00 0.00 0.00 78 1016.0
20260506232534 78 311 2.6 7.0 0.00 0.00 0.00 78 1016.0
20260506232033 78 360 2.6 7.0 0.00 0.00 0.00 79 1016.0
20260506231542 77 345 1.7 7.8 0.00 0.00 0.00 78 1016.2
20260506231033 78 333 2.6 8.7 0.00 0.00 0.00 78 1016.2
20260506230536 78 327 4.3 8.7 0.00 0.00 0.00 77 1016.1
20260506230052 78 0 0.9 7.0 0.00 0.00 0.00 79 1016.2
20260506225535 78 84 2.6 7.0 0.00 0.00 0.00 78 1016.3
20260506225033 78 63 1.7 5.2 0.00 0.00 0.00 79 1016.3
20260506224546 77 235 0.9 5.2 0.00 0.00 0.00 79 1016.3
20260506224033 77 319 0.9 5.2 0.00 0.00 0.00 79 1016.4
20260506223533 77 310 1.7 6.1 0.00 0.00 0.00 79 1016.5
20260506223043 77 339 1.7 6.1 0.00 0.00 0.00 79 1016.5
20260506222534 76 311 2.6 7.0 0.00 0.00 0.00 80 1016.5
20260506222034 76 327 2.6 7.8 0.00 0.00 0.00 79 1016.6
20260506221543 76 327 0.9 7.8 0.00 0.00 0.00 79 1016.6
20260506221034 77 360 1.7 5.2 0.00 0.00 0.00 78 1016.7
20260506220533 77 331 1.7 7.0 0.00 0.00 0.00 78 1016.7
20260506220057 77 320 1.7 7.0 0.00 0.00 0.00 79 1016.7
20260506215536 77 311 1.7 8.7 0.00 0.00 0.00 78 1016.8
20260506215034 77 327 3.5 8.7 0.00 0.00 0.00 78 1016.9
20260506214545 77 31 0.9 7.8 0.00 0.00 0.00 79 1016.9
20260506214034 77 336 2.6 7.8 0.00 0.00 0.00 79 1017.0
20260506213533 77 324 2.6 7.8 0.00 0.00 0.00 79 1017.1
20260506213046 76 315 2.6 7.8 0.00 0.00 0.00 79 1017.1
20260506212534 75 327 2.6 7.0 0.00 0.00 0.00 80 1017.2
20260506212034 75 344 2.6 7.0 0.00 0.00 0.00 81 1017.2
20260506211547 75 311 2.6 6.1 0.00 0.00 0.00 81 1017.2
20260506211035 74 315 2.6 7.8 0.00 0.00 0.00 82 1017.3
20260506210538 74 355 1.7 7.8 0.00 0.00 0.00 82 1017.3
20260506210130 74 311 2.6 7.0 0.00 0.00 0.00 82 1017.3
20260506205531 74 323 1.7 6.1 0.00 0.00 0.00 82 1017.3
20260506205031 74 339 2.6 7.0 0.00 0.00 0.00 81 1017.3
20260506204541 75 321 0.0 7.0 0.00 0.00 0.00 81 1017.2
20260506204034 75 5 1.7 4.3 0.00 0.00 0.00 81 1017.3
20260506203533 75 355 0.0 4.3 0.00 0.00 0.00 81 1017.3
20260506203130 75 355 0.9 3.5 0.00 0.00 0.00 81 1017.4
20260506202530 75 355 1.7 3.5 0.00 0.00 0.00 80 1017.4
20260506202033 75 355 1.7 4.3 0.00 0.00 0.00 81 1017.3
20260506201548 75 355 1.7 4.3 0.00 0.00 0.00 81 1017.3
20260506201030 75 327 0.9 4.3 0.00 0.00 0.00 81 1017.2
20260506200530 75 329 1.7 5.2 0.00 0.00 0.00 81 1017.3
20260506200050 74 340 1.7 5.2 0.00 0.00 0.00 80 1017.3
20260506195531 75 28 1.7 3.5 0.00 0.00 0.00 80 1017.3
20260506195031 75 9 0.9 4.3 0.00 0.00 0.00 80 1017.4
20260506194550 75 5 1.7 4.3 0.00 0.00 0.00 80 1017.3
20260506194031 75 0 0.9 6.1 0.00 0.00 0.00 81 1017.3
20260506193530 74 297 0.9 6.1 0.00 0.00 0.00 81 1017.3
20260506193041 74 333 2.6 4.3 0.00 0.00 0.00 81 1017.3
20260506192530 74 315 0.9 6.1 0.00 0.00 0.00 81 1017.3